Hauptseite
METAR-TAF:

METAR-TAF

Flughäfen :

Nordholz, Deutschland

Fliegerhorst Nordholz

Breite: 53-46N, Länge: 008-40E, Höhe: 23 m

Beobachtung

Neuester Wetterbericht von vor 46 Minuten, um 21:20 UTC
Wind 9 kt aus Ost
Temperatur -3°C
Luftfeuchtigkeit 63%
Luftdruck 1033 hPa
Sichtweite 10 km oder mehr
Leicht bewölkt in der Höhe von 4000 ft

METAR: ETMN 242120Z 09009KT 9999 FEW040 M03/M09 Q1033 BLU+

Zeit: 23:06 (22:06 UTC)


TAF: fehlend

Wetterbeobachtungen und Prognosen von mehr als 4000 Flughäfen (METAR und TAF Bericht).

Die verfügbaren Stationen werden durch gelbe und rote Markierungen auf der Karte dargestellt.

Führen Sie die Maus auf sie, um den Namen der Station zu sehen.

Darauf klicken, um die Beobachtung von Wetterbeobachtungen und Prognosen zu sehen.

Um die Karte zu ändern : klicken Sie auf den grünen Tasten mit einem schwarzen Kreuz Zum Vergrößern, auf den grünen Button mit einem Gedankenstrich zu verkleinern, oder auf die grünen Pfeile für benachbarte Karten.


METAR-TAF: